Location: Lone Wolf Observatory
(41.0360°N, 89.2260°W)
Time: 23:14:17
(UTC-05:00)

Amateur Radio Satellites - All Passes

Search period start: 23 October 2017 22:44
Search period end: 24 October 2017 22:44
Location: Lone Wolf Observatory, 41.0360°N, 89.2260°W

Satellite Date Start Highest point End Downlink Frequencies (MHz)
Time Altitude Azimuth
LO-87 23 Oct 22:45:33 22:48:40 28° 71° (ENE) 22:51:49 145.935 - 145.965
ESTCUBE 1 23 Oct 22:51:43 22:55:31 28° 69° (ENE) 22:59:21 437.505/2401.250
PRISM 23 Oct 22:54:54 22:58:41 34° 98° (E) 23:02:28 437.425
YUBILEINY 23 Oct 23:00:16 23:04:32 15° 285° (WNW) 23:08:49 435.215
UNISAT 6 23 Oct 23:01:34 23:06:10 78° 284° (WNW) 23:10:37 437.425
TIGRISAT 23 Oct 23:15:19 23:19:51 61° 286° (WNW) 23:24:14 435.000
AO-85 23 Oct 23:15:51 23:17:23 11° 252° (WSW) 23:18:56 145.980
AIST 2D 23 Oct 23:37:30 23:40:25 25° 96° (E) 23:43:20 435.315
QB50P2 23 Oct 23:38:32 23:39:45 11° 90° (E) 23:40:57 145.880/145.840
VELOX 1 24 Oct 00:00:27 00:04:04 26° 68° (ENE) 00:07:43 145.980
RS-15 24 Oct 00:18:19 00:30:26 70° 115° (ESE) 00:42:36 29.354- 29.394
LO-87 24 Oct 00:19:41 00:22:06 17° 267° (W) 00:24:32 145.935 - 145.965
FO-29 24 Oct 00:19:51 00:22:00 12° 306° (NW) 00:24:12 435.910
SPROUT 24 Oct 00:20:18 00:24:31 61° 74° (ENE) 00:28:46 437.525
ESTCUBE 1 24 Oct 00:28:26 00:32:15 27° 264° (W) 00:36:05 437.505/2401.250
PRISM 24 Oct 00:30:43 00:33:43 20° 294° (WNW) 00:36:42 437.425
EO-79 24 Oct 00:45:10 00:49:24 59° 101° (E) 00:53:33 145.935-145.965
POLYITAN 1 24 Oct 00:51:03 00:55:19 69° 102° (ESE) 00:59:30 437.675
DX 1 24 Oct 00:54:03 00:57:33 24° 67° (ENE) 01:01:03 434.975-435.025
UKube-1 24 Oct 01:09:43 01:13:05 23° 67° (ENE) 01:16:27 .
NANOSAT C BR1 24 Oct 01:10:40 01:14:55 80° 284° (WNW) 01:19:07 145.865
AIST 2D 24 Oct 01:11:02 01:13:25 18° 291° (WNW) 01:15:47 435.315
BUGSAT 1 24 Oct 01:11:26 01:14:43 22° 94° (E) 01:17:56 437.445
QB50P2 24 Oct 01:11:42 01:15:55 62° 286° (WNW) 01:20:06 145.880/145.840
DUCHIFAT 1 24 Oct 01:19:06 01:23:19 74° 286° (WNW) 01:27:30 145.980
50 SAT 24 Oct 01:34:47 01:38:02 86° 77° (ENE) 01:41:18 437.505
VELOX 1 24 Oct 01:36:38 01:40:24 28° 264° (W) 01:44:13 145.980
Oscar 19 24 Oct 01:48:59 01:53:26 29° 96° (E) 01:57:50 437.125/150
NO-84 24 Oct 01:51:04 01:55:09 46° 132° (SE) 01:59:17 435.350 FM
SPROUT 24 Oct 01:59:21 02:00:46 11° 270° (W) 02:02:12 437.525
ITUPSAT 1 24 Oct 02:16:00 02:19:05 17° 63° (ENE) 02:22:11 437.325
EO-79 24 Oct 02:22:40 02:24:37 13° 297° (WNW) 02:26:34 145.935-145.965
BEESAT 24 Oct 02:27:59 02:31:40 23° 65° (ENE) 02:35:23 436.000
POLYITAN 1 24 Oct 02:29:09 02:30:29 11° 298° (WNW) 02:31:48 437.675
DX 1 24 Oct 02:29:47 02:33:35 30° 263° (W) 02:37:24 434.975-435.025
RS-15 24 Oct 02:32:17 02:43:48 43° 320° (NW) 02:55:16 29.354- 29.394
MOZHAYETS 4 24 Oct 02:43:56 02:48:05 34° 70° (ENE) 02:52:15
UKube-1 24 Oct 02:45:05 02:48:55 31° 263° (W) 02:52:47 .
BUGSAT 1 24 Oct 02:46:22 02:50:04 30° 291° (WNW) 02:53:44 437.445
Gurwin Techsat 1B 24 Oct 02:52:21 02:57:43 81° 103° (ESE) 03:03:01 435.225
CUBESAT XI-V 24 Oct 03:08:09 03:10:28 14° 63° (ENE) 03:12:48 437.345
M-CUBED/EXP-1 PRIME 24 Oct 03:10:57 03:14:36 66° 289° (WNW) 03:18:31 437.505
Oscar 19 24 Oct 03:28:10 03:32:43 33° 292° (WNW) 03:37:16 437.125/150
NO-84 24 Oct 03:28:50 03:32:42 32° 329° (NNW) 03:36:32 435.350 FM
ITUPSAT 1 24 Oct 03:51:44 03:56:27 55° 259° (W) 04:01:11 437.325
AO-7 24 Oct 03:52:54 04:00:39 41° 99° (E) 04:08:20 .
BEESAT 24 Oct 04:04:42 04:09:11 40° 262° (W) 04:13:42 436.000
ITAMSAT 1 24 Oct 04:09:29 04:14:22 38° 98° (E) 04:19:12 435.822/435.867
MOZHAYETS 4 24 Oct 04:21:32 04:25:15 24° 266° (W) 04:29:00
Gurwin Techsat 1B 24 Oct 04:34:15 04:36:57 14° 301° (WNW) 04:39:39 435.225
CUBESAT XI-V 24 Oct 04:42:42 04:47:17 64° 259° (W) 04:51:52 437.345
O/OREOS (USA 219) 24 Oct 04:45:01 04:47:39 15° 53° (NE) 04:50:16 437.305
SO-50 24 Oct 04:49:31 04:50:27 11° 107° (ESE) 04:51:26 436.795
RS-15 24 Oct 04:51:48 05:00:52 23° 353° (N) 05:09:44 29.354- 29.394
DOVE 4 24 Oct 04:53:37 04:56:41 16° 91° (E) 04:59:45 437.250
NO-84 24 Oct 05:09:07 05:11:12 13° 349° (N) 05:13:14 435.350 FM
KKS-1 24 Oct 05:17:03 05:21:29 88° 74° (ENE) 05:25:58 437.445
STARS 24 Oct 05:37:50 05:42:10 59° 73° (ENE) 05:46:31 437.465
AO-7 24 Oct 05:45:39 05:53:26 47° 298° (WNW) 06:01:13 .
ITAMSAT 1 24 Oct 05:49:17 05:53:38 27° 295° (WNW) 05:57:58 435.822/435.867
LilacSat-2 24 Oct 06:01:17 06:03:11 13° 92° (E) 06:05:03 437.200
XW-2D 24 Oct 06:02:49 06:04:41 13° 92° (E) 06:06:32 145.860 - 145.880
XW-2B 24 Oct 06:15:45 06:18:24 18° 94° (E) 06:21:03 145.730 - 145.750
O/OREOS (USA 219) 24 Oct 06:22:58 06:27:32 65° 251° (WSW) 06:32:02 437.305
SO-50 24 Oct 06:25:45 06:30:14 79° 303° (WNW) 06:34:45 436.795
DOVE 4 24 Oct 06:29:38 06:34:40 64° 286° (WNW) 06:39:52 437.250
XW-2C 24 Oct 06:38:37 06:42:05 35° 98° (E) 06:45:32 145.795 - 145.815
NO-84 24 Oct 06:48:09 06:50:07 13° 10° (N) 06:52:00 435.350 FM
CUTE-I 24 Oct 06:48:34 06:53:37 39° 98° (E) 06:58:38 437.470
HO-68 24 Oct 06:58:21 07:03:47 22° 92° (E) 07:09:09 435.675
RS-15 24 Oct 07:08:28 07:18:48 31° 28° (NNE) 07:28:41 29.354- 29.394
KAITUO 1B 24 Oct 07:10:08 07:13:48 66° 101° (E) 07:17:27 145.475/437.950
STRAND 1 24 Oct 07:15:27 07:20:28 58° 72° (ENE) 07:25:32 437.568
STARS 24 Oct 07:16:58 07:18:51 12° 269° (W) 07:20:45 437.465
NUDT-PHONESAT 24 Oct 07:17:03 07:20:43 79° 102° (ESE) 07:24:21 437.300
XW-2F 24 Oct 07:19:25 07:23:08 70° 284° (WNW) 07:26:50 145.980 - 146.000
SEEDS 24 Oct 07:26:31 07:29:15 17° 92° (E) 07:32:00 437.485
CUTE 1.7 + AOD 2 24 Oct 07:27:09 07:30:49 28° 96° (E) 07:34:27 437.475
LilacSat-2 24 Oct 07:34:05 07:37:36 39° 288° (WNW) 07:41:07 437.200
XW-2D 24 Oct 07:35:32 07:39:01 38° 288° (WNW) 07:42:30 145.860 - 145.880
CUBEBUG 2 24 Oct 07:36:31 07:40:05 22° 93° (E) 07:43:33 437.445
AO-7 24 Oct 07:42:52 07:44:07 10° 319° (NW) 07:45:20 .
PCSat 24 Oct 07:44:04 07:49:27 74° 117° (ESE) 07:54:53 145.827
XW-2A 24 Oct 07:44:55 07:46:16 12° 92° (E) 07:47:36 145.665 - 145.685
XW-2B 24 Oct 07:49:22 07:52:36 28° 289° (WNW) 07:55:48 145.730 - 145.750
ISS 24 Oct 08:04:58 08:07:28 21° 133° (SE) 08:09:59 437.550
UWE-3 24 Oct 08:05:20 08:09:00 25° 94° (E) 08:12:34 435.000/436.395/437.385
YUBILEINY 24 Oct 08:06:52 08:13:28 25° 81° (E) 08:20:04 435.215
SO-50 24 Oct 08:09:26 08:11:27 13° 323° (NW) 08:13:29 436.795
XW-2C 24 Oct 08:13:44 08:15:57 15° 293° (WNW) 08:18:10 145.795 - 145.815
NO-84 24 Oct 08:24:57 08:28:35 32° 31° (NNE) 08:31:57 435.350 FM
UNISAT 6 24 Oct 08:27:47 08:28:09 10° 60° (ENE) 08:28:31 437.425
CUTE-I 24 Oct 08:28:59 08:33:27 27° 295° (WNW) 08:37:54 437.470
TIGRISAT 24 Oct 08:39:33 08:41:34 13° 61° (ENE) 08:43:37 435.000
FO-29 24 Oct 08:44:06 08:49:18 62° 72° (ENE) 08:55:01 435.910
AO-73 24 Oct 08:44:11 08:47:59 30° 96° (E) 08:51:42 145.935
HO-68 24 Oct 08:44:52 08:52:02 68° 290° (WNW) 08:59:08 435.675
nSIGHT-1 24 Oct 08:56:19 08:59:30 84° 145° (SE) 09:02:42 .
STRAND 1 24 Oct 08:56:47 09:00:00 17° 269° (W) 09:03:15 437.568
SEEDS 24 Oct 09:01:12 09:05:04 38° 288° (WNW) 09:08:57 437.485
CUTE 1.7 + AOD 2 24 Oct 09:03:08 09:06:30 24° 292° (WNW) 09:09:51 437.475
ZACube-1 24 Oct 09:08:39 09:12:58 66° 100° (E) 09:17:10 437.345
AAUSAT CUBESAT 2 24 Oct 09:11:25 09:15:32 68° 285° (WNW) 09:19:38 437.432
CUBEBUG 2 24 Oct 09:12:37 09:16:46 34° 290° (WNW) 09:20:48 437.445
XW-2A 24 Oct 09:16:04 09:19:05 33° 288° (WNW) 09:22:06 145.665 - 145.685
RS-15 24 Oct 09:21:26 09:33:27 81° 56° (ENE) 09:44:46 29.354- 29.394
PCSat 24 Oct 09:29:35 09:33:25 19° 316° (NW) 09:37:17 145.827
Oscar 11 24 Oct 09:37:28 09:41:47 84° 102° (ESE) 09:46:05 .
ISS 24 Oct 09:40:37 09:43:44 44° 329° (NNW) 09:46:53 437.550
UWE-3 24 Oct 09:41:35 09:45:25 29° 291° (WNW) 09:49:09 435.000/436.395/437.385
PRISM 24 Oct 09:44:10 09:47:26 24° 68° (ENE) 09:50:43 437.425
Max Valier Satellite 24 Oct 09:57:30 10:00:07 18° 94° (E) 10:02:42 145.860
DELFI C3 24 Oct 09:58:29 10:01:56 28° 96° (E) 10:05:25 145.870
UNISAT 6 24 Oct 09:59:23 10:04:03 88° 78° (ENE) 10:08:48 437.425
YUBILEINY 24 Oct 10:00:46 10:09:24 69° 280° (W) 10:18:08 435.215
NO-84 24 Oct 10:02:28 10:05:58 34° 231° (SW) 10:09:11 435.350 FM
TIGRISAT 24 Oct 10:12:56 10:17:35 74° 258° (WSW) 10:22:20 435.000
AO-73 24 Oct 10:20:40 10:24:03 23° 293° (WNW) 10:27:22 145.935
FO-29 24 Oct 10:31:57 10:35:04 16° 272° (W) 10:38:20 435.910
nSIGHT-1 24 Oct 10:33:41 10:36:06 19° 341° (NNW) 10:38:32 .
HO-68 24 Oct 10:35:10 10:38:26 14° 309° (NW) 10:41:41 435.675
ZACube-1 24 Oct 10:47:05 10:48:37 12° 298° (WNW) 10:50:09 437.345
BEESAT 2 24 Oct 11:09:43 11:12:08 16° 110° (ESE) 11:14:34 435.950
EO-88 24 Oct 11:10:10 11:13:46 69° 284° (WNW) 11:17:22 145.990 - 145.960
BEESAT 3 24 Oct 11:13:54 11:17:50 61° 119° (ESE) 11:21:49 437.485
ISS 24 Oct 11:18:51 11:20:51 15° 349° (N) 11:22:50 437.550
PRISM 24 Oct 11:19:11 11:22:35 26° 264° (W) 11:26:02 437.425
Max Valier Satellite 24 Oct 11:30:50 11:33:57 27° 289° (WNW) 11:37:02 145.860
DELFI C3 24 Oct 11:33:30 11:36:31 21° 292° (WNW) 11:39:32 145.870
RS-15 24 Oct 11:35:24 11:44:26 27° 259° (WSW) 11:53:11 29.354- 29.394
EO-79 24 Oct 11:37:02 11:41:03 42° 72° (ENE) 11:45:06 145.935-145.965
POLYITAN 1 24 Oct 11:42:57 11:47:05 49° 73° (ENE) 11:51:14 437.675
AIST 2D 24 Oct 11:43:42 11:47:06 49° 261° (W) 11:50:31 435.315
LO-87 24 Oct 11:45:13 11:48:34 34° 98° (E) 11:51:53 145.935 - 145.965
AO-85 24 Oct 11:48:25 11:51:32 23° 113° (ESE) 11:54:43 145.980
BUGSAT 1 24 Oct 12:01:26 12:04:03 16° 65° (ENE) 12:06:41 437.445
NANOSAT C BR1 24 Oct 12:01:55 12:06:10 72° 75° (ENE) 12:10:26 145.865
QB50P2 24 Oct 12:03:26 12:07:42 87° 251° (WSW) 12:12:02 145.880/145.840
YUBILEINY 24 Oct 12:04:12 12:08:05 13° 303° (WNW) 12:12:00 435.215
SPROUT 24 Oct 12:09:01 12:09:30 10° 89° (E) 12:09:59 437.525
DUCHIFAT 1 24 Oct 12:10:02 12:14:16 78° 74° (ENE) 12:18:32 145.980
nSIGHT-1 24 Oct 12:11:52 12:13:20 12° 1° (N) 12:14:47 .
ESTCUBE 1 24 Oct 12:19:57 12:24:24 61° 101° (E) 12:28:50 437.505/2401.250
Gurwin Techsat 1B 24 Oct 12:35:55 12:39:16 17° 61° (ENE) 12:42:37 435.225
BEESAT 2 24 Oct 12:45:35 12:49:28 46° 307° (NW) 12:53:24 435.950
BEESAT 3 24 Oct 12:53:18 12:55:46 16° 317° (NW) 12:58:15 437.485
ISS 24 Oct 12:56:28 12:58:20 14° 9° (N) 13:00:13 437.550
AO-7 24 Oct 13:05:20 13:08:36 13° 44° (NE) 13:11:51 .
Oscar 19 24 Oct 13:05:30 13:10:20 43° 70° (ENE) 13:15:11 437.125/150
EO-79 24 Oct 13:14:15 13:16:58 16° 267° (W) 13:19:43 145.935-145.965
SO-50 24 Oct 13:17:55 13:20:24 14° 39° (NE) 13:22:55 436.795
LO-87 24 Oct 13:19:36 13:21:40 15° 294° (WNW) 13:23:43 145.935 - 145.965
POLYITAN 1 24 Oct 13:20:47 13:23:07 14° 269° (W) 13:25:27 437.675
VELOX 1 24 Oct 13:25:44 13:30:05 51° 100° (E) 13:34:26 145.980
AO-85 24 Oct 13:28:21 13:31:46 29° 311° (NW) 13:35:18 145.980
BUGSAT 1 24 Oct 13:34:59 13:39:00 45° 261° (W) 13:43:06 437.445
SPROUT 24 Oct 13:41:33 13:45:50 68° 286° (WNW) 13:50:04 437.525
nSIGHT-1 24 Oct 13:47:54 13:50:30 22° 22° (NNE) 13:53:05 .
M-CUBED/EXP-1 PRIME 24 Oct 13:57:12 14:00:26 47° 255° (WSW) 14:03:36 437.505
ESTCUBE 1 24 Oct 13:58:27 14:00:40 14° 297° (WNW) 14:02:54 437.505/2401.250
Gurwin Techsat 1B 24 Oct 14:13:23 14:18:38 66° 258° (WSW) 14:23:57 435.225
DX 1 24 Oct 14:17:16 14:21:28 44° 100° (E) 14:25:39 434.975-435.025
50 SAT 24 Oct 14:25:34 14:28:53 77° 102° (ESE) 14:32:10 437.505
UKube-1 24 Oct 14:31:31 14:35:37 39° 99° (E) 14:39:40 .
ISS 24 Oct 14:32:24 14:35:30 38° 29° (NNE) 14:38:35 437.550
Oscar 19 24 Oct 14:45:47 14:49:48 23° 266° (W) 14:53:50 437.125/150
PCSat 24 Oct 14:51:05 14:52:49 11° 36° (NE) 14:54:33 145.827
AO-7 24 Oct 14:51:33 14:59:33 56° 65° (ENE) 15:07:34 .
SO-50 24 Oct 14:56:54 15:01:32 87° 57° (ENE) 15:06:13 436.795
VELOX 1 24 Oct 15:03:26 15:06:05 16° 296° (WNW) 15:08:46 145.980
nSIGHT-1 24 Oct 15:23:50 15:27:00 61° 219° (SW) 15:30:09 .
ITAMSAT 1 24 Oct 15:27:09 15:32:14 58° 72° (ENE) 15:37:22 435.822/435.867
ITUPSAT 1 24 Oct 15:52:19 15:56:46 37° 98° (E) 16:01:09 437.325
DX 1 24 Oct 15:54:23 15:57:17 18° 296° (WNW) 16:00:11 434.975-435.025
DOVE 4 24 Oct 16:00:23 16:02:15 13° 61° (ENE) 16:04:10 437.250
BEESAT 24 Oct 16:04:27 16:09:06 50° 100° (E) 16:13:43 436.000
UKube-1 24 Oct 16:08:17 16:11:19 19° 295° (WNW) 16:14:22 .
ISS 24 Oct 16:09:06 16:11:52 25° 225° (SW) 16:14:37 437.550
MOZHAYETS 4 24 Oct 16:15:22 16:19:58 80° 103° (ESE) 16:24:30
PCSat 24 Oct 16:32:04 16:37:25 57° 57° (ENE) 16:42:44 145.827
CUBESAT XI-V 24 Oct 16:39:26 16:43:31 31° 96° (E) 16:47:35 437.345
SO-50 24 Oct 16:40:47 16:41:18 10° 253° (WSW) 16:41:48 436.795
AO-7 24 Oct 16:45:21 16:52:36 33° 263° (W) 16:59:54 .
ITAMSAT 1 24 Oct 17:08:46 17:12:04 17° 268° (W) 17:15:23 435.822/435.867
KKS-1 24 Oct 17:09:05 17:12:01 17° 93° (E) 17:14:55 437.445
XW-2C 24 Oct 17:20:16 17:22:54 18° 68° (ENE) 17:25:31 145.795 - 145.815
HO-68 24 Oct 17:28:27 17:32:58 18° 54° (NE) 17:37:31 435.675
STARS 24 Oct 17:29:58 17:30:51 10° 90° (E) 17:31:44 437.465
ITUPSAT 1 24 Oct 17:30:34 17:34:22 24° 294° (WNW) 17:38:09 437.325
DOVE 4 24 Oct 17:35:09 17:39:19 62° 259° (W) 17:43:45 437.250
BEESAT 24 Oct 17:43:15 17:46:27 18° 297° (WNW) 17:49:40 436.000
KAITUO 1B 24 Oct 17:49:51 17:53:04 28° 71° (ENE) 17:56:18 145.475/437.950
MOZHAYETS 4 24 Oct 17:55:09 17:56:26 11° 299° (WNW) 17:57:43
NUDT-PHONESAT 24 Oct 17:55:45 17:59:04 32° 72° (ENE) 18:02:24 437.300
XW-2F 24 Oct 17:59:34 18:03:13 49° 74° (ENE) 18:06:51 145.980 - 146.000
CUTE-I 24 Oct 18:10:09 18:15:23 64° 72° (ENE) 18:20:41 437.470
LilacSat-2 24 Oct 18:15:01 18:18:49 87° 256° (WSW) 18:22:39 437.200
XW-2D 24 Oct 18:15:45 18:19:33 89° 262° (W) 18:23:21 145.860 - 145.880
PCSat 24 Oct 18:16:31 18:20:20 20° 254° (WSW) 18:24:09 145.827
CUBESAT XI-V 24 Oct 18:16:56 18:20:45 26° 292° (WNW) 18:24:33 437.345
YUBILEINY 24 Oct 18:18:01 18:20:45 12° 55° (NE) 18:23:30 435.215
SEEDS 24 Oct 18:19:11 18:20:54 12° 64° (ENE) 18:22:36 437.485
CUTE 1.7 + AOD 2 24 Oct 18:19:58 18:23:06 21° 67° (ENE) 18:26:15 437.475
XW-2B 24 Oct 18:29:27 18:33:11 62° 259° (WSW) 18:36:57 145.730 - 145.750
CUBEBUG 2 24 Oct 18:34:16 18:37:41 20° 65° (ENE) 18:41:09 437.445
KKS-1 24 Oct 18:44:29 18:48:46 45° 289° (WNW) 18:53:02 437.445
XW-2C 24 Oct 18:53:29 18:56:51 30° 263° (W) 19:00:13 145.795 - 145.815
O/OREOS (USA 219) 24 Oct 18:57:55 19:00:27 15° 99° (E) 19:03:01 437.305
UWE-3 24 Oct 19:01:53 19:05:29 22° 67° (ENE) 19:09:04 435.000/436.395/437.385
STARS 24 Oct 19:03:13 19:07:39 70° 285° (WNW) 19:12:02 437.465
HO-68 24 Oct 19:12:32 19:19:42 88° 75° (ENE) 19:26:57 435.675
KAITUO 1B 24 Oct 19:24:29 19:27:04 18° 266° (W) 19:29:40 145.475/437.950
STRAND 1 24 Oct 19:26:54 19:30:38 20° 93° (E) 19:34:22 437.568
BEESAT 2 24 Oct 19:26:58 19:28:45 12° 40° (NE) 19:30:31 435.950
NUDT-PHONESAT 24 Oct 19:30:42 19:33:00 16° 267° (W) 19:35:19 437.300
BEESAT 3 24 Oct 19:30:45 19:34:23 33° 51° (NE) 19:37:57 437.485
XW-2F 24 Oct 19:36:43 19:37:35 11° 269° (W) 19:38:27 145.980 - 146.000
AO-73 24 Oct 19:39:11 19:42:54 25° 68° (ENE) 19:46:38 145.935
XW-2A 24 Oct 19:46:08 19:49:31 68° 76° (ENE) 19:52:54 145.665 - 145.685
SEEDS 24 Oct 19:51:58 19:56:04 59° 260° (W) 20:00:12 437.485
CUTE-I 24 Oct 19:52:41 19:55:52 16° 269° (W) 19:59:04 437.470
CUTE 1.7 + AOD 2 24 Oct 19:54:54 19:58:44 33° 263° (W) 20:02:33 437.475
FO-29 24 Oct 19:56:36 19:57:18 10° 85° (E) 19:58:00 435.910
AAUSAT CUBESAT 2 24 Oct 20:00:46 20:04:50 74° 76° (ENE) 20:08:56 437.432
ZACube-1 24 Oct 20:03:28 20:07:54 51° 73° (ENE) 20:12:20 437.345
CUBEBUG 2 24 Oct 20:09:27 20:13:57 44° 262° (W) 20:18:31 437.445
YUBILEINY 24 Oct 20:10:57 20:19:40 61° 78° (ENE) 20:28:22 435.215
AO-85 24 Oct 20:18:08 20:22:00 27° 48° (NE) 20:26:06 145.980
Oscar 11 24 Oct 20:31:37 20:35:53 61° 75° (ENE) 20:40:10 .
O/OREOS (USA 219) 24 Oct 20:34:54 20:39:21 53° 295° (WNW) 20:43:53 437.305
UWE-3 24 Oct 20:37:18 20:41:39 38° 263° (W) 20:46:01 435.000/436.395/437.385
DELFI C3 24 Oct 20:44:19 20:46:48 17° 66° (ENE) 20:49:18 145.870
BEESAT 2 24 Oct 21:03:00 21:07:03 85° 240° (WSW) 21:11:02 435.950
HO-68 24 Oct 21:04:11 21:08:17 16° 271° (W) 21:12:25 435.675
STRAND 1 24 Oct 21:05:06 21:10:03 49° 289° (WNW) 21:14:59 437.568
BEESAT 3 24 Oct 21:08:43 21:11:42 21° 248° (WSW) 21:14:39 437.485
AO-73 24 Oct 21:14:55 21:18:58 31° 264° (W) 21:23:03 145.935
FO-29 24 Oct 21:36:10 21:43:19 64° 101° (E) 21:51:01 435.910
ZACube-1 24 Oct 21:41:40 21:44:25 16° 269° (W) 21:47:11 437.345
EO-88 24 Oct 21:47:11 21:50:39 44° 74° (ENE) 21:54:08 145.990 - 145.960
UNISAT 6 24 Oct 21:52:17 21:55:30 19° 92° (E) 21:58:38 437.425
AO-85 24 Oct 21:58:09 22:02:30 40° 244° (WSW) 22:07:09 145.980
TIGRISAT 24 Oct 22:05:18 22:08:58 23° 94° (E) 22:12:32 435.000
Max Valier Satellite 24 Oct 22:08:22 22:12:04 65° 259° (W) 22:15:47 145.860
YUBILEINY 24 Oct 22:08:40 22:15:50 29° 277° (W) 22:23:02 435.215
Oscar 11 24 Oct 22:10:54 22:12:24 12° 270° (W) 22:13:54 .
DELFI C3 24 Oct 22:17:39 22:21:15 36° 262° (W) 22:24:53 145.870
LO-87 24 Oct 22:21:56 22:24:02 15° 67° (ENE) 22:26:08 145.935 - 145.965
